Wind_Speed
40 40 38 36 34 33 32 31 29 26 24 23 22 21 20 22 25 27 28 29 30 31 32 33 32 32 31 30 27 25 25 23 22 20 18 18 18 17 16 15 15 14 13 13 12 12 13 13 12 9 9 9 8 8 8 4 1 2 3 5 6 8 10
38 38 38 35 33 33 31 30 29 26 25 24 22 21 21 22 24 26 26 26 27 28 29 30 31 32 31 31 29 27 26 25 22 21 20 19 19 18 16 15 14 13 13 15 15 15 15 15 13 10 9 9 9 9 8 5 3 2 2 4 6 8 10
37 36 35 33 31 30 28 28 28 26 25 24 23 22 22 23 24 25 25 24 24 25 27 28 29 30 31 31 30 28 27 25 23 22 21 20 19 17 16 15 15 15 15 17 17 17 16 15 14 12 10 10 9 9 9 7 5 5 3 4 5 7 9
34 34 33 30 28 27 27 26 26 25 26 25 24 23 23 24 24 24 24 23 23 24 25 26 27 28 30 31 30 29 27 26 24 23 22 22 20 18 17 17 16 16 17 18 18 19 18 16 15 13 11 10 10 11 11 9 8 8 6 4 5 6 8
33 33 33 31 29 29 29 29 27 26 26 25 24 23 23 24 25 26 25 24 24 23 22 22 24 27 29 30 30 28 27 26 25 24 24 23 21 19 18 18 18 18 18 18 19 19 18 17 16 14 12 11 11 12 12 10 10 10 9 6 5 6 7
33 33 32 30 29 30 30 30 28 26 25 26 26 24 23 24 26 28 28 27 26 24 22 21 23 25 27 28 28 27 27 27 26 26 26 25 23 21 20 20 20 20 19 19 19 19 18 17 16 14 13 12 12 13 13 12 11 11 11 9 8 7 8
32 32 31 29 28 28 27 27 28 27 26 27 27 25 25 25 27 29 30 29 28 25 24 24 24 25 25 25 25 26 27 27 27 27 27 26 24 22 22 22 21 21 21 21 20 19 19 17 16 15 14 14 14 13 13 13 13 13 12 12 12 11 12
31 30 30 28 26 26 25 24 25 26 28 28 28 27 27 27 28 30 31 30 28 26 26 27 26 26 25 24 23 24 26 27 28 28 28 27 26 24 23 23 23 22 22 21 20 20 19 18 17 16 15 15 13 13 13 13 14 13 13 14 15 15 15
31 29 28 25 24 25 25 24 24 26 29 31 30 29 28 29 30 31 31 29 28 28 29 29 29 27 26 25 23 22 24 27 29 29 29 29 27 25 24 24 24 23 22 21 21 20 19 19 18 17 16 15 13 12 13 13 13 12 11 12 14 16 18
36 31 26 24 25 26 27 26 25 27 30 32 32 30 30 31 32 32 31 29 28 28 30 31 30 29 28 27 25 23 24 27 30 30 30 30 28 26 24 24 24 24 22 22 22 21 20 19 18 17 16 15 13 12 12 11 12 12 11 11 12 15 18
39 33 27 26 29 31 32 32 30 28 30 32 32 32 32 32 33 34 31 28 27 28 30 32 31 30 30 29 27 25 25 27 30 31 31 30 29 27 25 24 24 24 23 23 23 23 22 21 19 18 17 15 13 12 11 11 12 14 14 14 15 16 18
41 36 30 28 31 33 34 36 35 30 29 31 32 32 33 34 35 35 31 28 28 29 29 30 31 31 31 30 29 28 26 26 29 31 31 31 29 27 25 23 23 24 24 24 24 24 23 22 20 19 17 15 14 13 12 12 13 15 16 17 18 18 20
42 39 32 30 32 34 35 36 37 34 30 32 32 32 34 35 36 35 32 29 29 29 28 29 30 32 32 32 32 30 28 27 28 30 31 30 29 28 26 24 24 25 26 26 26 25 24 23 21 18 17 16 16 15 14 14 15 16 16 18 20 20 21
41 40 34 33 33 32 34 36 38 36 33 33 33 31 33 35 36 35 32 30 29 28 28 29 30 32 32 32 33 32 30 28 28 30 31 31 31 30 28 26 26 27 28 28 27 26 25 23 21 20 19 19 18 18 18 19 19 19 19 21 23 23 23
40 43 37 35 34 33 33 34 36 36 34 35 34 31 31 34 35 34 32 30 29 28 27 27 29 31 33 33 33 33 31 30 29 30 31 32 32 31 30 29 29 29 30 30 29 27 26 25 24 24 23 22 21 21 22 22 22 22 23 24 25 26 26
33 37 36 34 33 35 36 33 32 34 33 34 35 31 29 31 32 32 32 30 28 26 25 25 28 31 33 33 32 33 33 32 31 32 33 33 33 32 32 31 31 31 31 30 28 27 26 25 25 24 24 22 22 23 23 23 23 24 25 27 28 29 29
29 29 31 30 29 35 39 34 30 31 31 32 34 31 28 28 28 29 29 29 27 26 25 25 27 29 32 33 32 33 34 33 33 33 34 34 34 33 33 32 32 32 32 31 29 28 27 26 26 25 23 23 23 23 23 24 25 27 28 29 30 30 30
28 26 26 27 26 30 36 36 32 30 30 31 32 30 28 28 29 29 30 29 28 27 26 27 27 29 31 32 33 35 35 34 34 34 35 35 35 34 34 34 34 34 33 32 31 29 28 28 27 26 25 25 24 24 24 25 26 27 29 30 30 31 30
23 24 24 23 19 20 27 32 31 29 30 31 30 29 30 31 31 31 31 30 29 28 27 28 28 29 31 33 34 36 36 35 34 34 35 35 35 34 35 36 36 35 35 34 31 30 30 30 29 28 27 26 24 23 24 25 27 28 30 31 32 33 32
21 22 25 24 18 14 19 25 27 28 30 30 29 28 29 29 29 28 28 28 29 30 28 27 27 28 31 34 36 37 37 36 35 34 35 36 36 35 35 36 36 35 34 32 31 32 32 31 30 28 27 25 23 23 25 27 28 29 31 32 33 34 33
21 20 23 28 25 19 18 21 25 27 27 28 29 28 27 26 26 25 27 30 32 31 29 27 26 26 29 34 38 38 36 35 34 34 35 36 37 37 36 35 35 35 32 29 29 30 30 30 29 27 25 23 23 24 26 28 29 29 29 30 31 32 33
20 18 17 23 27 26 24 24 26 28 29 30 31 29 27 25 24 24 26 29 31 31 29 27 26 24 26 31 38 38 36 34 34 34 35 37 37 37 37 36 36 33 30 29 28 28 28 27 26 25 24 24 25 26 27 28 27 26 26 26 28 31 32
25 23 19 19 24 28 28 26 26 29 30 31 32 32 28 25 25 24 26 29 31 29 28 26 25 23 22 26 34 38 36 32 32 33 35 36 37 37 37 37 35 32 31 31 30 28 26 24 23 23 25 25 25 26 26 25 23 23 24 26 29 31 32
25 25 24 23 22 24 26 26 25 27 27 27 32 34 29 26 27 27 28 31 32 31 29 27 26 24 22 21 27 35 37 33 30 32 36 36 36 37 38 38 35 33 33 33 30 28 26 23 23 25 26 24 24 23 23 22 21 23 25 27 30 32 31
23 24 25 25 23 21 22 23 25 27 27 28 32 34 29 26 28 30 31 33 33 31 31 30 28 25 23 20 21 27 33 35 33 32 35 37 38 38 39 38 35 34 34 32 29 28 27 25 26 27 25 23 23 22 21 21 22 25 28 30 31 31 30
25 24 24 24 24 23 23 23 24 26 28 29 32 31 28 27 29 30 31 31 31 32 32 31 28 25 24 24 23 25 28 34 37 36 35 37 39 40 41 39 36 35 33 30 28 28 28 28 28 26 24 23 22 21 21 21 23 28 31 32 32 31 29
27 26 25 24 25 25 25 27 27 26 26 30 33 33 33 33 33 34 33 33 35 37 36 35 33 31 30 29 29 30 30 31 35 38 38 37 39 42 43 40 38 36 34 32 31 30 30 30 28 25 24 23 23 22 22 22 25 30 34 33 31 29 27
25 26 26 26 27 28 28 28 30 29 27 30 34 36 37 37 37 39 40 41 42 42 41 41 39 36 34 32 33 34 35 34 34 36 38 40 41 43 44 42 40 39 37 35 35 33 32 30 28 25 25 25 25 23 22 23 25 30 32 31 28 26 25
22 23 23 24 25 27 28 28 29 31 30 30 30 31 34 37 39 41 43 45 46 46 46 45 40 35 32 33 34 34 36 38 37 36 38 41 43 45 45 42 39 39 39 38 37 36 35 33 30 27 26 27 26 23 22 22 24 27 28 27 25 25 24
26 25 25 24 23 24 26 27 27 29 31 31 30 29 30 34 38 40 42 43 46 48 47 44 40 36 33 33 33 33 34 37 37 37 39 42 44 46 47 43 39 40 41 41 42 40 37 34 31 28 28 27 24 21 20 20 23 25 25 24 24 24 24
31 30 30 30 27 26 25 25 26 28 29 31 31 30 30 31 35 42 46 45 46 49 48 45 42 39 36 35 34 34 35 37 38 39 41 43 45 48 50 47 43 42 44 45 45 41 36 34 32 29 27 25 22 20 20 21 23 24 24 23 23 23 23
32 33 33 33 32 30 27 25 25 28 29 31 31 31 30 30 34 42 48 48 48 50 49 47 43 39 37 37 37 35 36 37 40 43 44 46 47 49 52 50 47 46 48 47 43 38 37 37 34 29 25 22 21 22 23 23 24 24 23 22 22 22 21
28 30 33 33 35 35 33 30 28 28 30 32 33 34 33 32 34 39 43 47 49 46 41 37 36 35 36 38 37 37 39 42 45 47 49 50 52 52 52 52 51 50 47 42 38 38 40 38 32 26 21 21 21 23 24 24 23 23 21 20 20 20 19
23 25 28 30 33 36 37 38 37 35 34 33 34 36 38 37 35 35 37 41 42 39 33 32 34 36 38 40 41 43 45 47 51 55 57 57 56 55 53 52 51 48 43 38 36 37 36 31 27 22 20 21 22 23 22 22 23 22 21 20 19 18 17
24 24 25 27 29 32 36 40 42 42 40 39 38 39 40 41 40 38 37 38 39 38 36 37 39 39 39 40 42 44 48 52 55 57 61 62 58 54 53 52 49 45 42 38 35 32 29 26 24 23 22 23 24 23 21 22 23 22 21 19 18 16 15
26 26 25 27 28 30 34 37 40 41 42 42 43 44 44 45 45 44 44 45 45 45 44 44 44 44 44 45 45 47 55 66 71 68 66 66 62 56 54 53 49 45 41 36 33 32 29 25 26 27 26 26 25 21 19 21 23 22 19 17 16 14 13
26 26 25 26 27 29 31 33 35 37 39 41 43 45 47 49 49 49 50 52 52 53 53 52 52 52 51 51 50 49 49 55 63 65 63 59 55 51 48 47 47 44 38 34 33 32 28 27 27 27 26 25 23 20 18 20 22 20 18 15 15 13 12
23 23 23 25 26 27 27 28 29 30 32 35 38 41 44 47 48 48 48 50 51 53 54 54 55 55 53 50 50 50 46 40 38 42 47 45 40 37 35 36 39 39 37 34 32 29 27 26 26 25 25 25 21 18 18 19 19 18 16 15 14 13 13
Wind_Direction
228 230 232 236 236 235 237 239 240 239 236 232 230 229 228 229 230 231 230 229 228 227 227 228 228 229 231 235 236 233 230 232 237 238 231 224 224 227 226 225 226 228 227 220 212 204 199 197 197 189 175 178 191 205 220 240 300 4 356 348 347 345 340
228 229 232 236 236 235 236 238 240 238 233 230 228 229 230 227 226 228 229 229 229 229 228 229 229 230 230 232 234 233 230 230 232 231 224 219 221 222 221 222 221 219 216 211 205 201 197 194 191 182 177 181 189 203 217 226 230 247 326 347 345 339 337
227 229 231 234 235 234 236 237 238 236 232 230 228 226 225 223 221 224 227 228 228 227 226 226 226 228 228 229 231 231 230 228 227 225 219 217 219 218 217 218 215 212 209 203 200 199 195 189 186 183 183 188 193 204 216 222 232 249 278 325 342 340 335
225 228 230 232 233 234 236 236 235 234 230 229 228 224 222 221 222 224 225 226 226 225 223 223 223 225 226 227 229 230 228 226 222 219 216 215 217 216 214 213 210 208 205 199 197 197 193 187 186 186 187 193 201 211 222 229 240 253 264 292 328 337 333
222 226 229 231 233 235 236 236 235 234 231 228 227 226 224 224 225 226 225 223 222 222 221 221 221 225 227 228 229 229 227 224 220 215 213 213 214 212 208 206 206 206 203 199 197 195 194 191 190 191 192 198 209 219 227 235 243 252 258 266 294 317 321
222 225 228 230 233 235 238 240 239 235 231 228 227 227 228 228 226 224 223 221 219 220 219 215 215 221 226 229 229 228 225 221 217 213 211 212 213 210 204 202 204 205 204 201 198 195 196 196 196 199 202 209 217 224 231 239 245 252 256 256 269 293 305
224 224 227 229 233 237 241 244 244 239 233 230 229 229 230 229 224 220 220 220 219 217 215 212 213 219 225 228 228 226 223 219 214 211 211 211 212 209 205 204 204 204 205 203 199 197 198 199 200 204 210 216 222 228 234 242 248 254 259 261 267 280 294
225 226 228 229 234 241 243 244 243 238 233 229 227 227 226 224 220 219 220 221 220 218 214 212 213 218 224 227 229 226 222 218 214 212 212 211 211 208 205 205 204 205 206 204 201 200 201 203 206 209 215 221 225 231 238 245 252 260 267 270 272 277 287
226 226 228 229 232 235 236 237 233 228 225 223 223 224 225 223 219 219 221 222 223 222 217 215 215 216 221 226 228 227 223 218 215 214 213 213 211 209 206 205 206 206 204 203 203 203 203 205 209 213 219 224 228 234 240 246 252 261 272 278 277 277 281
226 223 226 231 231 229 230 231 227 223 221 221 223 225 228 227 222 219 221 223 225 225 222 220 217 215 220 224 225 226 225 221 217 215 215 215 212 209 207 206 207 207 204 203 204 205 206 208 211 215 219 223 226 230 234 240 249 256 265 273 276 276 277
227 221 225 232 233 234 236 235 231 225 220 219 222 225 228 230 226 221 221 222 223 225 224 223 219 218 221 224 224 223 224 223 221 218 218 217 213 210 208 206 207 207 205 204 204 206 209 211 213 216 220 222 225 228 232 240 249 256 261 265 271 276 278
227 219 224 230 231 234 237 238 236 230 222 220 222 225 227 229 228 223 220 221 222 225 227 226 222 221 222 224 224 223 223 223 223 222 220 218 215 212 209 206 203 203 203 201 202 205 209 213 216 219 222 225 230 234 239 246 253 260 266 270 273 276 278
227 220 225 227 225 229 233 236 237 232 226 223 223 226 228 228 229 227 222 221 222 224 228 228 225 224 224 226 226 224 223 223 224 225 223 220 216 213 210 205 198 197 199 199 202 206 209 212 216 220 224 230 236 241 246 252 258 262 267 271 274 276 278
228 223 227 226 223 228 230 231 233 232 230 227 224 227 230 230 232 230 225 224 226 227 228 228 227 227 228 228 228 227 227 225 224 225 225 222 218 215 213 207 200 197 198 201 205 208 211 214 219 224 231 237 244 250 254 258 263 266 269 272 275 279 282
229 226 230 230 230 235 233 229 229 229 230 228 223 225 228 230 232 232 228 227 228 230 230 228 227 229 230 231 231 231 229 227 226 225 225 224 220 218 215 212 208 205 205 207 211 214 218 222 227 233 239 244 250 255 259 263 267 270 273 275 278 281 283
228 229 233 235 237 239 237 233 228 227 229 226 221 222 225 227 229 228 225 223 224 225 225 225 226 228 231 232 233 233 230 228 227 226 225 225 222 220 218 217 217 216 216 217 220 224 228 231 234 239 243 249 253 258 262 267 270 273 276 278 279 281 283
232 231 233 235 241 243 237 231 225 224 225 221 218 220 220 220 222 221 218 217 218 218 220 224 225 228 230 231 233 234 230 228 228 228 226 226 224 223 222 222 223 224 225 227 228 232 236 238 241 245 249 253 257 261 266 270 272 275 277 277 279 279 280
240 236 232 229 237 241 233 226 224 222 218 214 214 215 215 213 212 214 215 216 218 218 220 222 223 225 228 228 231 233 231 229 229 229 228 227 227 226 226 227 227 228 230 232 234 237 241 244 246 249 252 256 259 263 266 268 270 272 272 273 274 273 273
247 239 233 223 221 227 227 225 226 222 212 208 211 213 214 213 214 217 220 220 221 223 223 222 223 224 225 226 229 232 232 230 230 230 230 230 229 228 229 230 231 233 234 236 238 241 243 245 247 249 251 254 256 259 260 262 265 267 269 272 273 273 273
261 250 241 232 221 217 221 221 220 215 209 209 215 218 220 222 226 232 235 235 234 232 230 228 228 227 225 224 227 231 232 231 230 231 231 230 231 231 231 232 233 234 237 239 240 241 242 244 246 248 251 252 253 253 254 258 264 269 273 276 277 277 277
259 255 245 238 230 218 210 210 211 212 213 217 220 221 224 230 237 243 245 244 239 235 233 233 234 234 229 226 226 229 230 230 230 231 231 231 232 233 232 233 233 234 236 237 237 238 240 242 244 246 248 249 249 251 255 262 268 273 277 279 277 277 277
224 229 236 239 235 228 219 215 215 215 218 221 220 220 226 234 242 247 245 239 233 229 229 232 235 238 237 231 228 227 228 228 227 229 231 231 232 233 233 233 234 233 234 234 235 235 236 238 240 240 241 243 248 254 260 265 268 270 272 272 272 272 275
203 215 229 235 238 239 234 227 220 218 220 224 223 223 231 242 249 251 245 237 232 230 231 234 237 240 242 239 232 228 228 229 227 226 230 232 232 232 233 234 235 234 234 233 233 232 232 233 234 236 239 245 253 259 262 262 261 260 260 263 267 270 276
209 219 225 223 228 239 241 236 230 226 228 231 228 229 239 252 255 252 245 239 236 235 237 240 242 244 247 248 240 232 229 230 228 226 229 232 234 233 233 234 236 236 234 233 232 231 230 230 233 236 242 251 259 261 258 255 252 252 256 262 268 273 280
216 220 222 220 218 222 230 237 240 239 238 237 231 230 239 252 251 246 240 237 237 240 245 248 250 250 252 255 254 244 235 233 232 230 230 232 235 235 234 234 235 236 233 230 230 230 228 229 234 239 245 254 259 255 249 250 253 256 259 264 270 277 282
223 225 226 225 224 223 220 221 228 235 238 238 236 236 242 249 246 240 237 236 240 246 249 250 253 258 261 265 271 267 253 242 236 233 231 232 235 237 235 232 232 232 229 228 230 230 229 231 236 242 248 253 251 243 243 253 261 262 262 265 274 282 284
231 234 235 234 236 238 233 224 222 225 229 234 238 241 245 249 247 244 241 241 245 250 253 254 260 265 267 269 272 273 271 261 249 241 236 232 234 236 234 230 229 230 229 230 232 230 229 233 237 242 247 246 239 236 243 258 267 266 264 268 277 283 283
228 232 235 238 239 241 241 236 231 230 230 232 235 237 240 245 248 248 246 245 247 252 257 260 264 264 264 266 269 270 271 269 264 257 247 238 235 236 234 230 228 230 231 233 234 233 234 237 239 242 243 236 230 236 249 261 267 269 269 272 277 280 279
231 229 231 234 238 240 242 242 239 239 240 240 240 241 242 245 247 247 246 247 249 254 258 259 259 258 259 261 264 265 267 268 268 268 260 248 240 239 239 235 230 230 232 234 235 235 235 236 236 237 235 228 228 240 255 263 270 273 273 273 273 275 275
249 246 244 243 244 244 244 247 246 244 244 245 246 247 248 248 246 243 243 247 251 255 257 255 253 253 253 253 253 255 259 262 263 263 261 256 249 246 247 245 240 238 237 237 239 239 237 238 239 233 226 225 232 245 257 266 273 273 270 269 269 271 273
258 257 256 255 255 252 249 251 252 250 250 250 251 252 252 250 246 240 239 242 247 250 250 250 249 250 248 247 248 251 255 258 260 261 259 257 254 252 252 252 248 243 241 242 244 244 243 246 243 229 220 226 239 249 256 265 270 267 263 264 267 268 271
259 258 258 258 258 256 253 250 250 252 254 253 254 254 252 249 247 242 238 238 241 243 244 243 243 244 246 247 248 250 253 255 259 261 261 260 257 253 252 252 248 245 245 248 248 247 246 246 238 223 220 233 245 250 255 261 264 261 260 263 266 269 271
258 257 256 256 256 256 255 252 250 250 251 251 252 251 248 244 243 242 240 241 245 250 252 250 246 248 254 256 256 258 260 261 262 263 263 263 261 256 252 250 249 249 250 251 251 252 249 240 226 218 227 243 250 253 257 259 260 260 261 264 267 269 269
270 264 260 256 255 256 256 255 254 252 251 249 248 247 245 242 240 240 242 244 249 256 262 261 258 258 260 262 264 265 264 262 263 264 263 261 259 256 252 249 248 250 251 250 252 253 245 229 219 223 237 247 253 257 257 256 257 259 262 264 266 264 262
284 279 271 265 261 259 256 254 255 255 255 253 251 248 246 244 244 246 248 250 251 253 255 256 258 259 259 261 265 268 268 265 261 258 257 255 253 250 247 244 243 243 245 246 245 239 226 217 222 232 240 249 256 257 254 253 257 259 260 262 261 258 254
286 285 279 272 267 263 258 256 255 256 257 257 256 255 254 254 253 252 253 254 255 254 254 257 259 261 262 263 265 268 266 259 252 248 246 245 243 240 239 240 239 238 238 233 222 214 212 217 228 236 244 252 254 250 248 251 255 256 257 257 255 251 251
285 285 283 278 272 266 263 261 260 260 260 261 260 260 259 260 260 259 258 258 258 258 259 260 261 262 263 265 267 265 253 238 233 233 233 232 232 231 232 235 236 231 222 210 202 204 212 223 231 236 241 244 243 241 243 246 250 252 253 251 248 248 250
285 286 285 283 281 279 275 272 270 269 267 266 266 265 264 265 266 265 264 262 261 261 262 262 263 264 264 263 263 262 254 240 232 231 228 228 231 230 227 228 223 211 199 195 201 211 222 226 226 227 229 231 234 237 238 241 248 252 249 244 244 248 249
Height
3128 3130 3132 3134 3136 3138 3140 3142 3144 3146 3148 3150 3152 3154 3156 3157 3158 3159 3161 3162 3164 3167 3168 3170 3172 3174 3175 3176 3178 3179 3180 3180 3182 3184 3185 3186 3187 3188 3189 3190 3191 3192 3193 3194 3195 3197 3198 3199 3200 3201 3202 3203 3203 3204 3204 3205 3206 3206 3207 3206 3206 3205 3205
3125 3127 3128 3130 3132 3134 3136 3138 3141 3143 3145 3147 3149 3151 3152 3154 3155 3156 3158 3160 3162 3164 3165 3167 3169 3170 3172 3173 3175 3176 3177 3177 3179 3180 3182 3183 3184 3186 3187 3188 3189 3190 3192 3193 3194 3195 3196 3197 3198 3199 3200 3201 3202 3202 3203 3203 3204 3205 3205 3205 3204 3204 3203
3122 3124 3125 3127 3128 3131 3133 3135 3137 3139 3141 3143 3145 3147 3149 3150 3152 3153 3155 3157 3159 3161 3162 3164 3165 3167 3169 3170 3171 3173 3174 3174 3175 3177 3179 3181 3182 3184 3185 3186 3187 3188 3189 3191 3192 3193 3194 3196 3196 3197 3198 3199 3199 3200 3200 3201 3202 3202 3203 3203 3203 3202 3202
3119 3120 3122 3123 3125 3128 3130 3132 3134 3136 3138 3140 3142 3144 3146 3148 3149 3151 3153 3155 3156 3158 3160 3161 3163 3164 3165 3167 3168 3169 3171 3171 3172 3174 3176 3177 3180 3182 3183 3184 3185 3186 3187 3189 3190 3191 3192 3193 3194 3195 3196 3196 3197 3197 3198 3199 3199 3200 3201 3201 3201 3201 3201
3117 3118 3119 3121 3123 3124 3126 3128 3130 3133 3135 3136 3139 3141 3143 3145 3147 3148 3150 3152 3154 3155 3157 3159 3160 3161 3162 3163 3165 3166 3168 3169 3170 3171 3173 3174 3177 3179 3180 3181 3183 3184 3185 3187 3188 3189 3190 3191 3192 3193 3194 3194 3195 3195 3196 3197 3197 3198 3198 3199 3199 3199 3199
3114 3115 3116 3118 3120 3121 3123 3125 3127 3129 3132 3133 3136 3138 3140 3142 3143 3145 3147 3149 3151 3153 3155 3156 3157 3158 3159 3160 3162 3163 3164 3165 3167 3168 3169 3171 3174 3176 3178 3179 3181 3182 3183 3184 3186 3187 3188 3189 3190 3191 3191 3192 3192 3193 3194 3195 3195 3196 3196 3197 3197 3197 3197
3110 3111 3113 3115 3117 3118 3120 3121 3123 3126 3129 3131 3133 3135 3137 3139 3140 3142 3144 3146 3148 3150 3152 3153 3154 3155 3156 3157 3159 3160 3161 3162 3164 3165 3167 3168 3171 3173 3175 3176 3178 3179 3181 3182 3183 3184 3186 3187 3188 3188 3189 3190 3190 3191 3192 3192 3193 3193 3193 3194 3195 3195 3195
3107 3108 3110 3112 3114 3115 3117 3119 3121 3123 3126 3128 3130 3132 3133 3135 3137 3139 3141 3143 3145 3147 3149 3150 3152 3153 3154 3155 3156 3157 3158 3160 3161 3162 3164 3166 3168 3170 3172 3174 3175 3177 3178 3180 3181 3182 3183 3184 3185 3186 3187 3187 3188 3189 3190 3190 3191 3191 3191 3192 3192 3192 3193
3104 3105 3107 3109 3110 3112 3114 3116 3118 3120 3123 3125 3126 3128 3130 3132 3134 3136 3138 3140 3142 3144 3146 3147 3149 3151 3152 3153 3154 3155 3156 3157 3158 3160 3161 3163 3165 3167 3169 3171 3172 3174 3175 3177 3178 3180 3181 3182 3183 3183 3184 3185 3186 3187 3187 3188 3189 3189 3190 3190 3190 3190 3190
3101 3103 3105 3107 3107 3109 3111 3113 3115 3117 3119 3121 3123 3125 3127 3129 3131 3133 3135 3137 3139 3141 3143 3144 3146 3148 3149 3150 3151 3152 3154 3155 3156 3157 3158 3160 3162 3165 3167 3168 3169 3171 3173 3174 3176 3177 3178 3179 3180 3181 3182 3183 3183 3184 3185 3186 3186 3187 3188 3188 3188 3188 3189
3098 3100 3102 3103 3104 3106 3108 3109 3112 3114 3116 3118 3120 3122 3124 3126 3128 3130 3132 3134 3136 3138 3140 3141 3144 3145 3146 3148 3149 3150 3151 3153 3154 3155 3156 3158 3160 3162 3164 3165 3166 3168 3170 3171 3173 3174 3175 3176 3177 3178 3179 3180 3181 3182 3183 3184 3185 3185 3186 3186 3186 3187 3187
3093 3096 3098 3100 3102 3103 3105 3106 3108 3110 3113 3115 3117 3119 3121 3123 3125 3127 3129 3131 3133 3135 3136 3138 3141 3142 3144 3145 3146 3147 3149 3150 3152 3153 3154 3156 3158 3160 3161 3162 3164 3165 3167 3168 3170 3172 3173 3173 3175 3176 3177 3178 3179 3180 3181 3182 3183 3183 3184 3184 3184 3185 3185
3089 3092 3095 3097 3099 3101 3103 3104 3105 3107 3110 3112 3114 3116 3118 3120 3123 3124 3126 3127 3129 3131 3133 3135 3137 3139 3141 3142 3143 3144 3146 3148 3150 3151 3152 3153 3155 3157 3158 3160 3161 3162 3164 3166 3167 3169 3170 3171 3173 3174 3175 3176 3177 3178 3179 3180 3180 3181 3181 3182 3182 3182 3182
3086 3089 3092 3094 3096 3098 3100 3101 3102 3105 3107 3109 3112 3114 3115 3118 3120 3121 3123 3124 3126 3128 3130 3132 3134 3136 3138 3139 3140 3141 3143 3145 3147 3149 3150 3151 3153 3154 3155 3157 3158 3160 3162 3163 3165 3167 3168 3170 3172 3172 3173 3174 3175 3176 3177 3177 3177 3178 3179 3179 3179 3179 3179
3083 3086 3089 3091 3093 3094 3096 3097 3100 3102 3104 3106 3109 3111 3112 3115 3116 3118 3120 3121 3123 3124 3126 3128 3130 3132 3134 3136 3137 3138 3140 3142 3145 3147 3148 3149 3150 3151 3153 3154 3156 3158 3159 3161 3163 3165 3167 3169 3170 3171 3172 3173 3174 3174 3174 3174 3174 3175 3176 3176 3176 3176 3176
3081 3084 3086 3087 3089 3090 3092 3095 3097 3099 3101 3103 3106 3108 3110 3112 3113 3115 3116 3118 3119 3121 3123 3125 3126 3128 3130 3132 3134 3136 3138 3140 3142 3144 3145 3146 3147 3148 3150 3152 3154 3155 3157 3159 3161 3164 3165 3167 3168 3169 3170 3171 3172 3171 3171 3172 3172 3172 3173 3173 3173 3173 3173
3079 3080 3082 3084 3085 3086 3089 3092 3095 3096 3098 3101 3104 3106 3107 3109 3111 3112 3114 3115 3116 3118 3121 3122 3123 3125 3126 3128 3131 3133 3134 3137 3138 3140 3142 3144 3145 3146 3148 3149 3151 3153 3155 3157 3160 3162 3163 3165 3166 3167 3168 3169 3169 3169 3169 3169 3169 3169 3169 3169 3169 3169 3168
3076 3077 3078 3080 3081 3082 3086 3089 3092 3093 3096 3099 3101 3103 3105 3107 3109 3110 3111 3112 3114 3116 3118 3119 3120 3121 3123 3125 3127 3129 3131 3133 3135 3137 3139 3141 3143 3145 3146 3147 3149 3150 3152 3155 3158 3160 3161 3162 3163 3165 3166 3166 3167 3167 3167 3166 3166 3165 3165 3165 3165 3163 3163
3074 3075 3076 3077 3079 3081 3084 3087 3090 3092 3094 3097 3099 3101 3103 3105 3106 3108 3109 3111 3112 3113 3114 3115 3117 3118 3120 3122 3124 3126 3128 3131 3132 3135 3137 3139 3141 3143 3144 3145 3146 3148 3150 3153 3156 3158 3159 3159 3160 3162 3163 3163 3164 3164 3164 3163 3162 3162 3161 3162 3161 3157 3156
3072 3073 3075 3075 3077 3080 3083 3085 3088 3090 3093 3095 3096 3099 3101 3103 3104 3106 3108 3109 3110 3110 3111 3113 3114 3115 3117 3119 3120 3123 3125 3128 3130 3132 3134 3137 3139 3140 3141 3143 3144 3145 3147 3150 3153 3154 3155 3156 3157 3158 3159 3160 3161 3161 3161 3160 3160 3159 3159 3159 3156 3153 3152
3069 3071 3072 3073 3075 3078 3081 3084 3086 3088 3090 3092 3094 3097 3099 3100 3102 3104 3105 3106 3107 3107 3108 3110 3111 3112 3114 3116 3118 3120 3123 3125 3127 3130 3132 3134 3135 3137 3139 3140 3141 3142 3145 3147 3149 3150 3151 3153 3154 3155 3156 3157 3158 3158 3158 3158 3157 3156 3156 3154 3152 3149 3149
3066 3068 3069 3071 3073 3075 3078 3081 3083 3085 3088 3090 3092 3094 3095 3097 3099 3100 3101 3102 3102 3103 3105 3106 3108 3109 3111 3113 3115 3117 3119 3122 3124 3126 3128 3130 3132 3134 3135 3136 3137 3140 3142 3144 3145 3146 3147 3149 3150 3151 3152 3153 3154 3155 3155 3154 3154 3153 3152 3150 3148 3146 3145
3063 3065 3067 3069 3072 3073 3075 3078 3080 3083 3086 3088 3090 3091 3092 3094 3095 3095 3096 3097 3098 3100 3102 3103 3104 3106 3109 3111 3112 3114 3116 3119 3121 3123 3125 3127 3128 3130 3131 3132 3134 3137 3139 3140 3140 3142 3144 3146 3147 3148 3149 3150 3151 3151 3151 3150 3150 3149 3148 3147 3145 3144 3143
3060 3061 3063 3066 3069 3071 3073 3075 3077 3079 3081 3084 3086 3088 3090 3091 3091 3091 3092 3093 3094 3097 3098 3099 3101 3104 3106 3108 3110 3112 3114 3115 3118 3120 3121 3123 3124 3125 3126 3128 3130 3133 3134 3135 3136 3139 3141 3143 3144 3145 3145 3147 3147 3147 3146 3146 3147 3146 3145 3144 3143 3142 3141
3057 3058 3061 3063 3065 3067 3069 3072 3074 3076 3077 3079 3081 3084 3086 3087 3087 3087 3088 3089 3091 3093 3094 3096 3099 3101 3104 3106 3108 3110 3111 3112 3114 3115 3117 3118 3120 3121 3122 3124 3127 3128 3130 3131 3133 3135 3137 3138 3139 3140 3141 3142 3142 3143 3143 3143 3143 3143 3142 3141 3140 3140 3139
3056 3057 3058 3060 3062 3063 3065 3068 3070 3072 3074 3076 3078 3081 3082 3083 3084 3084 3085 3087 3088 3089 3090 3092 3096 3099 3102 3103 3105 3106 3107 3108 3109 3110 3112 3114 3115 3116 3118 3121 3123 3124 3126 3128 3129 3131 3132 3133 3134 3136 3137 3138 3138 3139 3139 3140 3140 3139 3138 3138 3138 3137 3136
3053 3054 3056 3057 3059 3060 3062 3064 3065 3067 3070 3072 3075 3077 3077 3078 3079 3080 3082 3083 3083 3084 3086 3089 3092 3095 3098 3100 3101 3102 3103 3104 3105 3106 3107 3109 3110 3111 3113 3116 3118 3120 3122 3124 3125 3126 3128 3129 3130 3132 3133 3134 3135 3135 3136 3137 3136 3135 3135 3135 3135 3134 3132
3049 3050 3052 3053 3055 3056 3058 3059 3061 3063 3064 3066 3069 3071 3072 3073 3074 3075 3077 3078 3078 3080 3082 3084 3087 3090 3093 3095 3096 3097 3098 3099 3100 3101 3102 3103 3105 3105 3107 3111 3114 3116 3118 3120 3121 3122 3124 3125 3126 3127 3128 3129 3130 3132 3133 3133 3132 3131 3131 3131 3131 3129 3128
3046 3047 3049 3050 3051 3051 3053 3055 3056 3058 3059 3061 3063 3065 3067 3068 3069 3071 3072 3073 3074 3076 3077 3079 3082 3084 3087 3089 3090 3091 3093 3094 3095 3097 3098 3098 3099 3099 3101 3106 3110 3112 3114 3115 3116 3117 3118 3119 3120 3120 3122 3124 3126 3128 3129 3128 3128 3128 3127 3127 3126 3125 3123
3043 3044 3046 3047 3048 3048 3049 3050 3052 3053 3055 3056 3057 3060 3062 3063 3065 3066 3067 3068 3070 3072 3073 3074 3076 3079 3081 3083 3084 3086 3088 3089 3090 3091 3091 3092 3094 3094 3095 3100 3104 3107 3108 3109 3110 3111 3114 3115 3115 3115 3117 3121 3123 3124 3125 3125 3124 3124 3123 3123 3122 3120 3120
3039 3041 3042 3043 3044 3046 3046 3047 3048 3049 3050 3051 3052 3054 3056 3058 3060 3061 3061 3063 3065 3066 3067 3069 3071 3072 3074 3076 3078 3080 3082 3083 3084 3085 3086 3087 3088 3088 3089 3094 3098 3101 3102 3103 3105 3109 3112 3114 3112 3112 3114 3118 3120 3121 3121 3121 3120 3120 3119 3118 3118 3117 3117
3036 3037 3038 3039 3040 3041 3043 3044 3045 3046 3047 3047 3048 3050 3051 3052 3054 3055 3056 3057 3058 3059 3061 3062 3064 3066 3068 3070 3072 3074 3075 3077 3078 3079 3080 3081 3082 3082 3084 3088 3092 3094 3096 3100 3104 3107 3110 3110 3108 3109 3113 3116 3117 3117 3117 3117 3116 3116 3115 3115 3114 3114 3114
3033 3033 3034 3034 3035 3036 3038 3040 3041 3043 3043 3043 3045 3046 3047 3048 3049 3051 3052 3053 3053 3054 3056 3057 3058 3061 3063 3065 3067 3069 3070 3072 3072 3073 3074 3075 3075 3076 3079 3083 3087 3090 3094 3099 3102 3104 3106 3107 3106 3107 3111 3113 3113 3114 3114 3113 3112 3112 3112 3111 3111 3111 3111
3030 3030 3030 3031 3031 3032 3033 3035 3036 3038 3038 3039 3040 3041 3042 3043 3045 3046 3048 3049 3050 3051 3053 3054 3055 3056 3057 3059 3060 3061 3062 3063 3063 3064 3065 3066 3068 3070 3073 3077 3083 3088 3093 3096 3098 3100 3102 3104 3104 3106 3109 3110 3110 3110 3110 3109 3109 3108 3108 3107 3107 3108 3108
3025 3025 3025 3026 3027 3028 3029 3030 3031 3032 3032 3033 3034 3035 3037 3038 3040 3041 3043 3044 3044 3045 3046 3047 3049 3050 3051 3052 3053 3053 3054 3054 3053 3053 3054 3056 3061 3064 3067 3071 3077 3083 3088 3091 3093 3096 3098 3099 3101 3104 3106 3106 3105 3105 3106 3105 3104 3103 3103 3103 3104 3105 3105
3021 3020 3021 3021 3021 3023 3024 3025 3025 3026 3026 3026 3027 3029 3030 3031 3033 3035 3037 3037 3038 3038 3039 3040 3041 3042 3043 3044 3045 3047 3042 3031 3027 3033 3038 3041 3048 3055 3059 3064 3070 3076 3081 3085 3088 3091 3094 3096 3098 3100 3100 3100 3100 3101 3102 3101 3099 3099 3100 3101 3101 3102 3102
3017 3017 3017 3017 3017 3018 3019 3019 3019 3020 3020 3020 3021 3022 3023 3024 3025 3027 3029 3030 3031 3031 3031 3033 3033 3034 3035 3035 3038 3040 3029 3011 3008 3021 3031 3034 3040 3047 3052 3057 3064 3070 3075 3079 3082 3087 3091 3093 3094 3094 3094 3095 3096 3097 3098 3097 3095 3096 3097 3098 3098 3098 3099
3014 3014 3014 3014 3013 3014 3014 3014 3014 3015 3015 3015 3015 3016 3016 3017 3017 3018 3019 3021 3022 3022 3022 3023 3024 3025 3027 3027 3030 3033 3028 3017 3018 3028 3033 3034 3040 3045 3049 3054 3059 3064 3070 3074 3079 3084 3087 3088 3089 3089 3088 3090 3091 3092 3094 3094 3093 3094 3095 3095 3095 3095 3096